PRIVATE WETTERSTATION BILLIGHEIM-ALLFELD                       ZURCK
Wetterdaten: Montag, 03.03.2014
Datum Zeit Temp. A. Temp. A. min Temp. A. max Feuchte A. Luftdruck Regen Wind Richtung Richtung Sonnenschein ET Solar Taupunkt Windchill Windben Empfang
03.03.2014 00:00 2,8 C 2,7 C 2,8 C 84 % 998,3 hPa 0,0 l/m 0,0 km/h (0 Bft) O-SO 112 0 min 0,000 mm 0 W/m 0,4 C 2,8 C 6,4 km/h (2 Bft) 100 %
03.03.2014 00:10 2,8 C 2,8 C 2,9 C 84 % 998,1 hPa 0,0 l/m 0,0 km/h (0 Bft) O-SO 112 0 min 0,000 mm 0 W/m 0,4 C 2,8 C 6,4 km/h (2 Bft) 99 %
03.03.2014 00:20 2,4 C 2,4 C 2,8 C 83 % 998,0 hPa 0,0 l/m 0,0 km/h (0 Bft) SO 135 0 min 0,000 mm 0 W/m -0,2 C 2,4 C 1,6 km/h (1 Bft) 100 %
03.03.2014 00:30 2,0 C 2,0 C 2,4 C 85 % 997,9 hPa 0,0 l/m 0,0 km/h (0 Bft) SO 135 0 min 0,000 mm 0 W/m -0,3 C 2,0 C 3,2 km/h (1 Bft) 100 %
03.03.2014 00:40 1,9 C 1,9 C 2,0 C 86 % 997,9 hPa 0,0 l/m 0,0 km/h (0 Bft) SO 135 0 min 0,000 mm 0 W/m -0,2 C 1,9 C 3,2 km/h (1 Bft) 100 %
03.03.2014 00:50 2,1 C 1,9 C 2,1 C 87 % 997,7 hPa 0,0 l/m 0,0 km/h (0 Bft) O 90 0 min 0,000 mm 0 W/m 0,2 C 2,1 C 6,4 km/h (2 Bft) 100 %
03.03.2014 01:00 2,6 C 2,1 C 2,6 C 87 % 997,3 hPa 0,0 l/m 1,6 km/h (1 Bft) SO 135 0 min 0,000 mm 0 W/m 0,7 C 2,6 C 8,0 km/h (2 Bft) 100 %
03.03.2014 01:10 3,1 C 2,6 C 3,1 C 85 % 997,0 hPa 0,0 l/m 1,6 km/h (1 Bft) O-SO 112 0 min 0,000 mm 0 W/m 0,8 C 3,1 C 8,0 km/h (2 Bft) 100 %
03.03.2014 01:20 3,3 C 3,1 C 3,3 C 84 % 996,9 hPa 0,0 l/m 1,6 km/h (1 Bft) O-SO 112 0 min 0,000 mm 0 W/m 0,9 C 3,3 C 6,4 km/h (2 Bft) 100 %
03.03.2014 01:30 3,6 C 3,3 C 3,6 C 83 % 996,7 hPa 0,0 l/m 1,6 km/h (1 Bft) O-NO 67 0 min 0,000 mm 0 W/m 1,0 C 3,6 C 6,4 km/h (2 Bft) 100 %
03.03.2014 01:40 3,6 C 3,6 C 3,6 C 83 % 996,4 hPa 0,0 l/m 0,0 km/h (0 Bft) O 90 0 min 0,000 mm 0 W/m 1,0 C 3,6 C 6,4 km/h (2 Bft) 100 %
03.03.2014 01:50 3,5 C 3,5 C 3,6 C 83 % 996,2 hPa 0,0 l/m 1,6 km/h (1 Bft) O-SO 112 0 min 0,000 mm 0 W/m 0,9 C 3,5 C 8,0 km/h (2 Bft) 100 %
03.03.2014 02:00 3,4 C 3,4 C 3,5 C 83 % 996,1 hPa 0,0 l/m 1,6 km/h (1 Bft) O-SO 112 0 min 0,000 mm 0 W/m 0,8 C 3,4 C 9,7 km/h (2 Bft) 100 %
03.03.2014 02:10 3,3 C 3,3 C 3,4 C 82 % 996,1 hPa 0,0 l/m 1,6 km/h (1 Bft) O-SO 112 0 min 0,000 mm 0 W/m 0,5 C 3,3 C 6,4 km/h (2 Bft) 100 %
03.03.2014 02:20 2,9 C 2,9 C 3,3 C 84 % 995,9 hPa 0,0 l/m 0,0 km/h (0 Bft) SO 135 0 min 0,000 mm 0 W/m 0,5 C 2,9 C 8,0 km/h (2 Bft) 100 %
03.03.2014 02:30 2,9 C 2,8 C 2,9 C 85 % 995,7 hPa 0,0 l/m 0,0 km/h (0 Bft) SO 135 0 min 0,000 mm 0 W/m 0,6 C 2,9 C 6,4 km/h (2 Bft) 100 %
03.03.2014 02:40 3,1 C 2,8 C 3,1 C 84 % 995,3 hPa 0,0 l/m 0,0 km/h (0 Bft) O-SO 112 0 min 0,000 mm 0 W/m 0,7 C 3,1 C 6,4 km/h (2 Bft) 100 %
03.03.2014 02:50 3,3 C 3,1 C 3,3 C 84 % 995,2 hPa 0,0 l/m 0,0 km/h (0 Bft) O 90 0 min 0,000 mm 0 W/m 0,9 C 3,3 C 6,4 km/h (2 Bft) 99 %
03.03.2014 03:00 3,3 C 3,3 C 3,4 C 83 % 994,9 hPa 0,0 l/m 1,6 km/h (1 Bft) O-SO 112 0 min 0,000 mm 0 W/m 0,7 C 3,3 C 6,4 km/h (2 Bft) 100 %
03.03.2014 03:10 3,4 C 3,3 C 3,4 C 83 % 994,7 hPa 0,0 l/m 1,6 km/h (1 Bft) O-SO 112 0 min 0,000 mm 0 W/m 0,8 C 3,4 C 6,4 km/h (2 Bft) 100 %
03.03.2014 03:20 3,4 C 3,4 C 3,4 C 83 % 994,4 hPa 0,0 l/m 1,6 km/h (1 Bft) O 90 0 min 0,000 mm 0 W/m 0,8 C 3,4 C 6,4 km/h (2 Bft) 90 %
03.03.2014 03:30 3,4 C 3,4 C 3,4 C 83 % 994,1 hPa 0,0 l/m 1,6 km/h (1 Bft) O 90 0 min 0,000 mm 0 W/m 0,8 C 3,4 C 6,4 km/h (2 Bft) 100 %
03.03.2014 03:40 3,4 C 3,3 C 3,4 C 83 % 993,9 hPa 0,0 l/m 1,6 km/h (1 Bft) O-SO 112 0 min 0,000 mm 0 W/m 0,8 C 3,4 C 8,0 km/h (2 Bft) 99 %
03.03.2014 03:50 3,3 C 3,3 C 3,4 C 83 % 993,7 hPa 0,0 l/m 1,6 km/h (1 Bft) O 90 0 min 0,000 mm 0 W/m 0,7 C 3,3 C 6,4 km/h (2 Bft) 100 %
03.03.2014 04:00 3,2 C 3,2 C 3,3 C 83 % 993,5 hPa 0,0 l/m 1,6 km/h (1 Bft) O 90 0 min 0,000 mm 0 W/m 0,6 C 3,2 C 8,0 km/h (2 Bft) 100 %
03.03.2014 04:10 3,2 C 3,2 C 3,2 C 83 % 993,4 hPa 0,0 l/m 1,6 km/h (1 Bft) O-SO 112 0 min 0,000 mm 0 W/m 0,6 C 3,2 C 8,0 km/h (2 Bft) 100 %
03.03.2014 04:20 3,2 C 3,2 C 3,3 C 83 % 993,4 hPa 0,0 l/m 1,6 km/h (1 Bft) O 90 0 min 0,000 mm 0 W/m 0,6 C 3,2 C 8,0 km/h (2 Bft) 100 %
03.03.2014 04:30 3,2 C 3,2 C 3,2 C 84 % 993,3 hPa 0,0 l/m 1,6 km/h (1 Bft) SO 135 0 min 0,000 mm 0 W/m 0,8 C 3,2 C 6,4 km/h (2 Bft) 100 %
03.03.2014 04:40 3,1 C 3,1 C 3,2 C 84 % 993,3 hPa 0,0 l/m 0,0 km/h (0 Bft) SO 135 0 min 0,000 mm 0 W/m 0,7 C 3,1 C 3,2 km/h (1 Bft) 100 %
03.03.2014 04:50 2,9 C 2,9 C 3,1 C 84 % 993,3 hPa 0,0 l/m 0,0 km/h (0 Bft) O-SO 112 0 min 0,000 mm 0 W/m 0,5 C 2,9 C 3,2 km/h (1 Bft) 100 %
03.03.2014 05:00 2,7 C 2,7 C 2,9 C 85 % 993,2 hPa 0,0 l/m 0,0 km/h (0 Bft) O 90 0 min 0,000 mm 0 W/m 0,4 C 2,7 C 3,2 km/h (1 Bft) 90 %
03.03.2014 05:10 2,7 C 2,7 C 2,7 C 85 % 993,2 hPa 0,0 l/m 1,6 km/h (1 Bft) O-SO 112 0 min 0,000 mm 0 W/m 0,4 C 2,7 C 4,8 km/h (1 Bft) 100 %
03.03.2014 05:20 2,8 C 2,7 C 2,8 C 86 % 993,2 hPa 0,0 l/m 1,6 km/h (1 Bft) O-SO 112 0 min 0,000 mm 0 W/m 0,7 C 2,8 C 6,4 km/h (2 Bft) 100 %
03.03.2014 05:30 2,6 C 2,6 C 2,8 C 85 % 993,2 hPa 0,0 l/m 0,0 km/h (0 Bft) SO 135 0 min 0,000 mm 0 W/m 0,3 C 2,6 C 6,4 km/h (2 Bft) 100 %
03.03.2014 05:40 2,4 C 2,4 C 2,6 C 85 % 993,0 hPa 0,0 l/m 0,0 km/h (0 Bft) SO 135 0 min 0,000 mm 0 W/m 0,1 C 2,4 C 6,4 km/h (2 Bft) 100 %
03.03.2014 05:50 2,1 C 2,1 C 2,4 C 85 % 993,0 hPa 0,0 l/m 1,6 km/h (1 Bft) SO 135 0 min 0,000 mm 0 W/m -0,2 C 2,1 C 4,8 km/h (1 Bft) 100 %
03.03.2014 06:00 1,6 C 1,6 C 2,1 C 85 % 992,9 hPa 0,0 l/m 0,0 km/h (0 Bft) S-SW 202 0 min 0,000 mm 0 W/m -0,6 C 1,6 C 6,4 km/h (2 Bft) 100 %
03.03.2014 06:10 1,1 C 1,1 C 1,6 C 86 % 993,0 hPa 0,0 l/m 0,0 km/h (0 Bft) S-SW 202 0 min 0,000 mm 0 W/m -1,0 C 1,1 C 1,6 km/h (1 Bft) 100 %
03.03.2014 06:20 0,8 C 0,8 C 1,1 C 87 % 992,9 hPa 0,0 l/m 0,0 km/h (0 Bft) S-SW 202 0 min 0,000 mm 0 W/m -1,1 C 0,8 C 3,2 km/h (1 Bft) 100 %
03.03.2014 06:30 0,6 C 0,6 C 0,8 C 88 % 992,8 hPa 0,0 l/m 0,0 km/h (0 Bft) S-SO 157 0 min 0,000 mm 0 W/m -1,2 C 0,6 C 3,2 km/h (1 Bft) 100 %
03.03.2014 06:40 0,6 C 0,5 C 0,6 C 88 % 992,7 hPa 0,0 l/m 0,0 km/h (0 Bft) SO 135 0 min 0,000 mm 0 W/m -1,2 C 0,6 C 3,2 km/h (1 Bft) 99 %
03.03.2014 06:50 0,3 C 0,3 C 0,6 C 88 % 992,7 hPa 0,0 l/m 1,6 km/h (1 Bft) S-SO 157 0 min 0,000 mm 0 W/m -1,4 C 0,3 C 8,0 km/h (2 Bft) 100 %
03.03.2014 07:00 0,1 C 0,1 C 0,3 C 88 % 992,9 hPa 0,0 l/m 0,0 km/h (0 Bft) SO 135 0 min 0,000 mm 7 W/m -1,6 C 0,1 C 3,2 km/h (1 Bft) 100 %
03.03.2014 07:10 -0,2 C -0,2 C 0,1 C 88 % 992,9 hPa 0,0 l/m 0,0 km/h (0 Bft) S 180 0 min 0,000 mm 11 W/m -1,9 C -0,2 C 6,4 km/h (2 Bft) 100 %
03.03.2014 07:20 -0,2 C -0,3 C -0,2 C 88 % 992,9 hPa 0,0 l/m 0,0 km/h (0 Bft) S 180 0 min 0,000 mm 21 W/m -1,9 C -0,2 C 6,4 km/h (2 Bft) 100 %
03.03.2014 07:30 -0,1 C -0,2 C -0,1 C 88 % 992,9 hPa 0,0 l/m 0,0 km/h (0 Bft) S-SO 157 0 min 0,000 mm 26 W/m -1,8 C -0,1 C 1,6 km/h (1 Bft) 100 %
03.03.2014 07:40 -0,2 C -0,3 C -0,1 C 88 % 992,9 hPa 0,0 l/m 0,0 km/h (0 Bft) SO 135 0 min 0,000 mm 33 W/m -1,9 C -0,2 C 3,2 km/h (1 Bft) 100 %
03.03.2014 07:50 0,2 C -0,2 C 0,2 C 88 % 992,6 hPa 0,0 l/m 0,0 km/h (0 Bft) SO 135 0 min 0,000 mm 37 W/m -1,5 C 0,2 C 6,4 km/h (2 Bft) 100 %
03.03.2014 08:00 0,7 C 0,2 C 0,7 C 88 % 992,8 hPa 0,0 l/m 0,0 km/h (0 Bft) SO 135 0 min 0,000 mm 47 W/m -1,1 C 0,7 C 4,8 km/h (1 Bft) 90 %
03.03.2014 08:10 1,0 C 0,6 C 1,0 C 88 % 992,8 hPa 0,0 l/m 1,6 km/h (1 Bft) SO 135 0 min 0,000 mm 60 W/m -0,8 C 1,0 C 8,0 km/h (2 Bft) 100 %
03.03.2014 08:20 1,1 C 1,0 C 1,1 C 88 % 992,8 hPa 0,0 l/m 0,0 km/h (0 Bft) S-SW 202 0 min 0,000 mm 74 W/m -0,7 C 1,1 C 3,2 km/h (1 Bft) 100 %
03.03.2014 08:30 1,2 C 1,1 C 1,2 C 88 % 992,9 hPa 0,0 l/m 0,0 km/h (0 Bft) S-SW 202 0 min 0,000 mm 91 W/m -0,6 C 1,2 C 3,2 km/h (1 Bft) 100 %
03.03.2014 08:40 1,6 C 1,2 C 1,6 C 88 % 993,0 hPa 0,0 l/m 1,6 km/h (1 Bft) S-SO 157 0 min 0,000 mm 148 W/m -0,2 C 1,6 C 6,4 km/h (2 Bft) 100 %
03.03.2014 08:50 2,1 C 1,6 C 2,1 C 88 % 993,2 hPa 0,0 l/m 0,0 km/h (0 Bft) SW 225 10 min 0,000 mm 167 W/m 0,3 C 2,1 C 3,2 km/h (1 Bft) 100 %
03.03.2014 09:00 2,3 C 2,1 C 2,3 C 88 % 993,4 hPa 0,0 l/m 0,0 km/h (0 Bft) SW 225 0 min 0,025 mm 142 W/m 0,5 C 2,3 C 6,4 km/h (2 Bft) 100 %
03.03.2014 09:10 2,5 C 2,3 C 2,5 C 88 % 993,4 hPa 0,0 l/m 3,2 km/h (1 Bft) S-SO 157 0 min 0,000 mm 93 W/m 0,7 C 2,5 C 9,7 km/h (2 Bft) 100 %
03.03.2014 09:20 2,9 C 2,5 C 2,9 C 88 % 993,5 hPa 0,0 l/m 3,2 km/h (1 Bft) S 180 0 min 0,000 mm 109 W/m 1,1 C 2,9 C 11,3 km/h (2 Bft) 100 %
03.03.2014 09:30 3,1 C 2,9 C 3,1 C 87 % 993,6 hPa 0,0 l/m 3,2 km/h (1 Bft) S-SW 202 0 min 0,000 mm 114 W/m 1,2 C 3,1 C 8,0 km/h (2 Bft) 100 %
03.03.2014 09:40 3,2 C 3,1 C 3,2 C 86 % 993,9 hPa 0,0 l/m 3,2 km/h (1 Bft) S-SW 202 0 min 0,000 mm 107 W/m 1,1 C 3,2 C 9,7 km/h (2 Bft) 100 %
03.03.2014 09:50 3,2 C 3,2 C 3,2 C 86 % 993,9 hPa 0,0 l/m 4,8 km/h (1 Bft) S 180 0 min 0,000 mm 79 W/m 1,1 C 3,2 C 9,7 km/h (2 Bft) 100 %
03.03.2014 10:00 3,3 C 3,2 C 3,3 C 86 % 994,0 hPa 0,0 l/m 3,2 km/h (1 Bft) S 180 0 min 0,025 mm 62 W/m 1,2 C 3,3 C 8,0 km/h (2 Bft) 100 %
03.03.2014 10:10 3,3 C 3,3 C 3,4 C 85 % 994,0 hPa 0,0 l/m 3,2 km/h (1 Bft) S-SO 157 0 min 0,000 mm 77 W/m 1,0 C 3,3 C 9,7 km/h (2 Bft) 100 %
03.03.2014 10:20 3,5 C 3,4 C 3,5 C 86 % 994,1 hPa 0,0 l/m 3,2 km/h (1 Bft) S 180 0 min 0,000 mm 98 W/m 1,4 C 3,5 C 8,0 km/h (2 Bft) 100 %
03.03.2014 10:30 3,7 C 3,5 C 3,7 C 85 % 994,1 hPa 0,0 l/m 3,2 km/h (1 Bft) S-SW 202 0 min 0,000 mm 107 W/m 1,4 C 3,7 C 9,7 km/h (2 Bft) 100 %
03.03.2014 10:40 3,8 C 3,7 C 3,8 C 85 % 994,1 hPa 0,0 l/m 3,2 km/h (1 Bft) S-SW 202 0 min 0,000 mm 109 W/m 1,5 C 3,8 C 9,7 km/h (2 Bft) 100 %
03.03.2014 10:50 4,0 C 3,8 C 4,0 C 85 % 994,1 hPa 0,0 l/m 3,2 km/h (1 Bft) S-SO 157 10 min 0,000 mm 236 W/m 1,7 C 4,0 C 9,7 km/h (2 Bft) 100 %
03.03.2014 11:00 4,4 C 4,0 C 4,4 C 85 % 994,1 hPa 0,0 l/m 6,4 km/h (2 Bft) S-SW 202 10 min 0,051 mm 290 W/m 2,1 C 4,4 C 11,3 km/h (2 Bft) 100 %
03.03.2014 11:10 4,7 C 4,4 C 4,7 C 84 % 994,0 hPa 0,0 l/m 4,8 km/h (1 Bft) S-SO 157 10 min 0,000 mm 265 W/m 2,2 C 4,7 C 9,7 km/h (2 Bft) 100 %
03.03.2014 11:20 5,1 C 4,7 C 5,1 C 83 % 994,0 hPa 0,0 l/m 3,2 km/h (1 Bft) S-SW 202 10 min 0,000 mm 272 W/m 2,5 C 5,1 C 11,3 km/h (2 Bft) 100 %
03.03.2014 11:30 5,6 C 5,1 C 5,6 C 83 % 994,0 hPa 0,0 l/m 6,4 km/h (2 Bft) S-SW 202 10 min 0,000 mm 461 W/m 2,9 C 5,6 C 14,5 km/h (3 Bft) 100 %
03.03.2014 11:40 5,9 C 5,6 C 5,9 C 81 % 994,1 hPa 0,0 l/m 4,8 km/h (1 Bft) SW 225 10 min 0,000 mm 320 W/m 2,9 C 5,9 C 9,7 km/h (2 Bft) 89 %
03.03.2014 11:50 6,3 C 5,9 C 6,3 C 79 % 994,0 hPa 0,0 l/m 6,4 km/h (2 Bft) S-SW 202 10 min 0,000 mm 346 W/m 2,9 C 6,3 C 14,5 km/h (3 Bft) 100 %
03.03.2014 12:00 6,8 C 6,3 C 6,8 C 78 % 994,1 hPa 0,0 l/m 6,4 km/h (2 Bft) S-SW 202 10 min 0,127 mm 650 W/m 3,2 C 6,8 C 19,3 km/h (3 Bft) 100 %
03.03.2014 12:10 7,2 C 6,9 C 7,2 C 78 % 994,2 hPa 0,0 l/m 11,3 km/h (2 Bft) S-SW 202 10 min 0,000 mm 429 W/m 3,6 C 3,7 C 20,9 km/h (4 Bft) 100 %
03.03.2014 12:20 7,2 C 7,2 C 7,2 C 77 % 994,1 hPa 0,0 l/m 9,7 km/h (2 Bft) S 180 10 min 0,000 mm 267 W/m 3,4 C 4,7 C 17,7 km/h (3 Bft) 100 %
03.03.2014 12:30 7,2 C 7,1 C 7,2 C 79 % 994,0 hPa 0,0 l/m 6,4 km/h (2 Bft) S-SW 202 10 min 0,000 mm 206 W/m 3,8 C 7,2 C 19,3 km/h (3 Bft) 100 %
03.03.2014 12:40 7,3 C 7,2 C 7,3 C 78 % 993,8 hPa 0,0 l/m 8,0 km/h (2 Bft) SW 225 10 min 0,000 mm 220 W/m 3,7 C 6,0 C 17,7 km/h (3 Bft) 100 %
03.03.2014 12:50 7,6 C 7,3 C 7,6 C 77 % 993,9 hPa 0,0 l/m 6,4 km/h (2 Bft) S-SW 202 10 min 0,000 mm 267 W/m 3,8 C 7,6 C 14,5 km/h (3 Bft) 100 %
03.03.2014 13:00 7,6 C 7,6 C 7,7 C 76 % 993,8 hPa 0,0 l/m 3,2 km/h (1 Bft) S 180 10 min 0,127 mm 308 W/m 3,6 C 7,6 C 12,9 km/h (3 Bft) 100 %
03.03.2014 13:10 7,7 C 7,6 C 7,7 C 76 % 993,8 hPa 0,0 l/m 6,4 km/h (2 Bft) S-SW 202 10 min 0,000 mm 188 W/m 3,7 C 7,7 C 16,1 km/h (3 Bft) 100 %
03.03.2014 13:20 7,6 C 7,6 C 7,7 C 77 % 993,7 hPa 0,0 l/m 1,6 km/h (1 Bft) S-SW 202 0 min 0,000 mm 139 W/m 3,8 C 7,6 C 8,0 km/h (2 Bft) 100 %
03.03.2014 13:30 7,6 C 7,5 C 7,6 C 76 % 993,7 hPa 0,0 l/m 4,8 km/h (1 Bft) S-SW 202 0 min 0,000 mm 72 W/m 3,6 C 7,6 C 11,3 km/h (2 Bft) 100 %
03.03.2014 13:40 7,4 C 7,4 C 7,6 C 77 % 993,8 hPa 0,0 l/m 4,8 km/h (1 Bft) S-SW 202 0 min 0,000 mm 70 W/m 3,6 C 7,4 C 16,1 km/h (3 Bft) 100 %
03.03.2014 13:50 7,3 C 7,3 C 7,4 C 77 % 993,8 hPa 0,0 l/m 1,6 km/h (1 Bft) S-SW 202 0 min 0,000 mm 42 W/m 3,5 C 7,3 C 8,0 km/h (2 Bft) 100 %
03.03.2014 14:00 7,3 C 7,3 C 7,4 C 77 % 993,8 hPa 0,0 l/m 7,6 km/h (2 Bft) S-SW 212 0 min 0,051 mm 32 W/m 3,5 C 6,3 C 11,3 km/h (2 Bft) 100 %
03.03.2014 14:10 7,3 C 7,3 C 7,3 C 78 % 993,9 hPa 0,0 l/m 2,7 km/h (1 Bft) SW 229 0 min 0,000 mm 95 W/m 3,7 C 7,3 C 9,7 km/h (2 Bft) 99 %
03.03.2014 14:20 7,3 C 7,3 C 7,3 C 77 % 994,1 hPa 0,0 l/m 6,2 km/h (2 Bft) SW 214 0 min 0,000 mm 86 W/m 3,5 C 7,3 C 16,1 km/h (3 Bft) 100 %
03.03.2014 14:30 7,4 C 7,3 C 7,4 C 76 % 994,0 hPa 0,0 l/m 7,1 km/h (2 Bft) W-SW 256 0 min 0,000 mm 144 W/m 3,5 C 6,8 C 17,7 km/h (3 Bft) 99 %
03.03.2014 14:40 7,5 C 7,4 C 7,5 C 75 % 994,1 hPa 0,0 l/m 7,2 km/h (2 Bft) SW 230 10 min 0,000 mm 200 W/m 3,4 C 6,9 C 16,1 km/h (3 Bft) 100 %
03.03.2014 14:50 7,8 C 7,5 C 7,8 C 75 % 994,1 hPa 0,0 l/m 3,1 km/h (1 Bft) W 265 10 min 0,000 mm 206 W/m 3,7 C 7,8 C 12,9 km/h (3 Bft) 100 %
03.03.2014 15:00 7,8 C 7,8 C 7,9 C 74 % 994,1 hPa 0,0 l/m 3,7 km/h (1 Bft) SW 223 10 min 0,077 mm 156 W/m 3,5 C 7,8 C 17,7 km/h (3 Bft) 99 %
03.03.2014 15:10 7,8 C 7,8 C 7,9 C 74 % 994,3 hPa 0,0 l/m 3,2 km/h (1 Bft) W 261 0 min 0,000 mm 130 W/m 3,5 C 7,8 C 11,3 km/h (2 Bft) 100 %
03.03.2014 15:20 7,9 C 7,8 C 7,9 C 73 % 994,2 hPa 0,0 l/m 4,6 km/h (1 Bft) W-SW 256 10 min 0,000 mm 188 W/m 3,4 C 7,9 C 11,3 km/h (2 Bft) 99 %
03.03.2014 15:30 8,1 C 7,9 C 8,1 C 73 % 994,2 hPa 0,0 l/m 1,7 km/h (1 Bft) W-NW 287 10 min 0,000 mm 274 W/m 3,6 C 8,1 C 8,0 km/h (2 Bft) 100 %
03.03.2014 15:40 8,7 C 8,1 C 8,7 C 72 % 994,1 hPa 0,0 l/m 0,7 km/h (0 Bft) NW 304 10 min 0,000 mm 501 W/m 3,9 C 8,7 C 6,4 km/h (2 Bft) 100 %
03.03.2014 15:50 9,3 C 8,7 C 9,3 C 69 % 994,2 hPa 0,0 l/m 3,1 km/h (1 Bft) NW 317 10 min 0,000 mm 281 W/m 3,9 C 9,3 C 9,7 km/h (2 Bft) 99 %
03.03.2014 16:00 9,6 C 9,3 C 9,6 C 67 % 994,3 hPa 0,0 l/m 2,7 km/h (1 Bft) W-NW 284 0 min 0,127 mm 91 W/m 3,8 C 9,6 C 9,7 km/h (2 Bft) 100 %
03.03.2014 16:10 9,5 C 9,5 C 9,6 C 68 % 994,2 hPa 0,0 l/m 2,9 km/h (1 Bft) SW 223 0 min 0,000 mm 90 W/m 3,9 C 9,5 C 9,7 km/h (2 Bft) 100 %
03.03.2014 16:20 9,4 C 9,4 C 9,5 C 68 % 994,3 hPa 0,0 l/m 2,5 km/h (1 Bft) W 263 0 min 0,000 mm 63 W/m 3,8 C 9,4 C 9,7 km/h (2 Bft) 100 %
03.03.2014 16:30 9,2 C 9,1 C 9,4 C 67 % 994,3 hPa 0,0 l/m 3,5 km/h (1 Bft) W 271 0 min 0,000 mm 54 W/m 3,4 C 9,2 C 12,9 km/h (3 Bft) 100 %
03.03.2014 16:40 8,8 C 8,8 C 9,2 C 68 % 994,4 hPa 0,0 l/m 1,7 km/h (1 Bft) SW 229 0 min 0,000 mm 65 W/m 3,2 C 8,8 C 8,0 km/h (2 Bft) 100 %
03.03.2014 16:50 8,4 C 8,4 C 8,8 C 68 % 994,4 hPa 0,0 l/m 2,8 km/h (1 Bft) SW 234 0 min 0,000 mm 69 W/m 2,8 C 8,4 C 8,0 km/h (2 Bft) 100 %
03.03.2014 17:00 8,2 C 8,2 C 8,4 C 70 % 994,6 hPa 0,0 l/m 0,8 km/h (0 Bft) S-SW 209 0 min 0,050 mm 69 W/m 3,1 C 8,2 C 6,4 km/h (2 Bft) 100 %
03.03.2014 17:10 8,1 C 8,1 C 8,2 C 71 % 994,5 hPa 0,0 l/m 0,3 km/h (0 Bft) S-SW 212 0 min 0,000 mm 69 W/m 3,2 C 8,1 C 3,2 km/h (1 Bft) 100 %
03.03.2014 17:20 7,9 C 7,9 C 8,1 C 71 % 994,5 hPa 0,0 l/m 0,2 km/h (0 Bft) SW 218 0 min 0,000 mm 56 W/m 3,0 C 7,9 C 3,2 km/h (1 Bft) 100 %
03.03.2014 17:30 7,7 C 7,7 C 7,9 C 71 % 994,5 hPa 0,0 l/m 0,0 km/h (0 Bft) SW 218 0 min 0,000 mm 42 W/m 2,8 C 7,7 C 1,6 km/h (1 Bft) 100 %
03.03.2014 17:40 7,6 C 7,6 C 7,7 C 71 % 994,5 hPa 0,0 l/m 0,0 km/h (0 Bft) SW 218 0 min 0,000 mm 28 W/m 2,7 C 7,6 C 0,0 km/h (0 Bft) 100 %
03.03.2014 17:50 7,3 C 7,3 C 7,6 C 72 % 994,6 hPa 0,0 l/m 0,1 km/h (0 Bft) SW 218 0 min 0,000 mm 14 W/m 2,6 C 7,3 C 1,6 km/h (1 Bft) 100 %
03.03.2014 18:00 7,1 C 7,1 C 7,3 C 72 % 994,8 hPa 0,0 l/m 0,0 km/h (0 Bft) SW 218 0 min 0,026 mm 0 W/m 2,4 C 7,1 C 0,0 km/h (0 Bft) 100 %
03.03.2014 18:10 6,8 C 6,8 C 7,1 C 73 % 994,8 hPa 0,0 l/m 0,0 km/h (0 Bft) SW 218 0 min 0,000 mm 0 W/m 2,3 C 6,8 C 0,0 km/h (0 Bft) 100 %
03.03.2014 18:20 6,4 C 6,4 C 6,8 C 74 % 994,9 hPa 0,0 l/m 0,0 km/h (0 Bft) SW 218 0 min 0,000 mm 0 W/m 2,1 C 6,4 C 0,0 km/h (0 Bft) 100 %
03.03.2014 18:30 6,1 C 6,1 C 6,4 C 75 % 995,0 hPa 0,0 l/m 0,0 km/h (0 Bft) SW 218 0 min 0,000 mm 0 W/m 2,0 C 6,1 C 0,0 km/h (0 Bft) 100 %
03.03.2014 18:40 5,9 C 5,9 C 6,1 C 76 % 995,0 hPa 0,0 l/m 0,0 km/h (0 Bft) SW 218 0 min 0,000 mm 0 W/m 2,0 C 5,9 C 0,0 km/h (0 Bft) 100 %
03.03.2014 18:50 5,7 C 5,7 C 5,9 C 76 % 995,2 hPa 0,0 l/m 0,0 km/h (0 Bft) SW 218 0 min 0,000 mm 0 W/m 1,8 C 5,7 C 0,0 km/h (0 Bft) 99 %
03.03.2014 19:00 5,5 C 5,5 C 5,7 C 78 % 995,2 hPa 0,0 l/m 0,0 km/h (0 Bft) SW 218 0 min 0,000 mm 0 W/m 2,0 C 5,5 C 0,0 km/h (0 Bft) 100 %
03.03.2014 19:10 5,3 C 5,3 C 5,5 C 79 % 995,2 hPa 0,0 l/m 0,0 km/h (0 Bft) SW 218 0 min 0,000 mm 0 W/m 2,0 C 5,3 C 0,0 km/h (0 Bft) 100 %
03.03.2014 19:20 5,2 C 5,2 C 5,3 C 80 % 995,3 hPa 0,0 l/m 0,0 km/h (0 Bft) SW 218 0 min 0,000 mm 0 W/m 2,0 C 5,2 C 0,0 km/h (0 Bft) 100 %
03.03.2014 19:30 5,2 C 5,2 C 5,2 C 81 % 995,3 hPa 0,0 l/m 0,0 km/h (0 Bft) SW 218 0 min 0,000 mm 0 W/m 2,2 C 5,2 C 0,0 km/h (0 Bft) 100 %
03.03.2014 19:40 5,1 C 5,1 C 5,2 C 82 % 995,2 hPa 0,0 l/m 0,0 km/h (0 Bft) SW 218 0 min 0,000 mm 0 W/m 2,3 C 5,1 C 0,0 km/h (0 Bft) 99 %
03.03.2014 19:50 4,9 C 4,9 C 5,1 C 82 % 995,3 hPa 0,0 l/m 0,2 km/h (0 Bft) SW 218 0 min 0,000 mm 0 W/m 2,1 C 4,9 C 1,6 km/h (1 Bft) 100 %
03.03.2014 20:00 4,8 C 4,8 C 4,9 C 82 % 995,4 hPa 0,0 l/m 0,0 km/h (0 Bft) SW 218 0 min 0,000 mm 0 W/m 2,0 C 4,8 C 1,6 km/h (1 Bft) 99 %
03.03.2014 20:10 4,8 C 4,7 C 4,8 C 82 % 995,5 hPa 0,0 l/m 0,1 km/h (0 Bft) SW 218 0 min 0,000 mm 0 W/m 2,0 C 4,8 C 1,6 km/h (1 Bft) 100 %
03.03.2014 20:20 4,8 C 4,8 C 4,8 C 81 % 995,5 hPa 0,0 l/m 0,0 km/h (0 Bft) SW 218 0 min 0,000 mm 0 W/m 1,8 C 4,8 C 0,0 km/h (0 Bft) 100 %
03.03.2014 20:30 4,8 C 4,8 C 4,8 C 81 % 995,6 hPa 0,0 l/m 0,0 km/h (0 Bft) SW 218 0 min 0,000 mm 0 W/m 1,8 C 4,8 C 0,0 km/h (0 Bft) 99 %
03.03.2014 20:40 4,7 C 4,7 C 4,8 C 83 % 995,6 hPa 0,0 l/m 0,0 km/h (0 Bft) SW 218 0 min 0,000 mm 0 W/m 2,1 C 4,7 C 0,0 km/h (0 Bft) 100 %
03.03.2014 20:50 4,5 C 4,5 C 4,7 C 83 % 995,9 hPa 0,0 l/m 0,0 km/h (0 Bft) SW 218 0 min 0,000 mm 0 W/m 1,9 C 4,5 C 0,0 km/h (0 Bft) 100 %
03.03.2014 21:00 4,3 C 4,3 C 4,5 C 84 % 996,0 hPa 0,0 l/m 0,0 km/h (0 Bft) SW 218 0 min 0,000 mm 0 W/m 1,8 C 4,3 C 0,0 km/h (0 Bft) 100 %
03.03.2014 21:10 4,2 C 4,2 C 4,3 C 84 % 996,0 hPa 0,0 l/m 0,0 km/h (0 Bft) N 0 0 min 0,000 mm 0 W/m 1,7 C 4,2 C 0,0 km/h (0 Bft) 100 %
03.03.2014 21:20 4,1 C 4,1 C 4,2 C 85 % 996,2 hPa 0,0 l/m 0,0 km/h (0 Bft) N 0 0 min 0,000 mm 0 W/m 1,8 C 4,1 C 0,0 km/h (0 Bft) 100 %
03.03.2014 21:30 4,0 C 4,0 C 4,1 C 85 % 996,2 hPa 0,0 l/m 0,0 km/h (0 Bft) SW 225 0 min 0,000 mm 0 W/m 1,7 C 4,0 C 1,6 km/h (1 Bft) 100 %
03.03.2014 21:40 3,9 C 3,9 C 4,0 C 85 % 996,2 hPa 0,0 l/m 0,0 km/h (0 Bft) N 0 0 min 0,000 mm 0 W/m 1,6 C 3,9 C 0,0 km/h (0 Bft) 99 %
03.03.2014 21:50 3,8 C 3,8 C 3,9 C 86 % 996,3 hPa 0,0 l/m 0,0 km/h (0 Bft) N 0 0 min 0,000 mm 0 W/m 1,7 C 3,8 C 0,0 km/h (0 Bft) 91 %
03.03.2014 22:00 3,7 C 3,7 C 3,8 C 86 % 996,3 hPa 0,0 l/m 0,0 km/h (0 Bft) SW 225 0 min 0,000 mm 0 W/m 1,6 C 3,7 C 1,6 km/h (1 Bft) 100 %
03.03.2014 22:10 3,6 C 3,6 C 3,7 C 86 % 996,3 hPa 0,0 l/m 0,0 km/h (0 Bft) NW 315 0 min 0,000 mm 0 W/m 1,5 C 3,6 C 3,2 km/h (1 Bft) 100 %
03.03.2014 22:20 3,5 C 3,5 C 3,6 C 87 % 996,3 hPa 0,0 l/m 0,0 km/h (0 Bft) NW 315 0 min 0,000 mm 0 W/m 1,5 C 3,5 C 1,6 km/h (1 Bft) 99 %
03.03.2014 22:30 3,4 C 3,4 C 3,5 C 87 % 996,4 hPa 0,0 l/m 0,0 km/h (0 Bft) NW 315 0 min 0,000 mm 0 W/m 1,4 C 3,4 C 1,6 km/h (1 Bft) 98 %
03.03.2014 22:40 3,3 C 3,3 C 3,4 C 87 % 996,5 hPa 0,0 l/m 0,0 km/h (0 Bft) NW 315 0 min 0,000 mm 0 W/m 1,3 C 3,3 C 1,6 km/h (1 Bft) 98 %
03.03.2014 22:50 3,2 C 3,2 C 3,3 C 87 % 996,5 hPa 0,0 l/m 0,0 km/h (0 Bft) NW 315 0 min 0,000 mm 0 W/m 1,2 C 3,2 C 1,6 km/h (1 Bft) 98 %
03.03.2014 23:00 3,0 C 3,0 C 3,2 C 87 % 996,4 hPa 0,0 l/m 0,0 km/h (0 Bft) N-NW 337 0 min 0,000 mm 0 W/m 1,1 C 3,0 C 3,2 km/h (1 Bft) 97 %
03.03.2014 23:10 2,9 C 2,9 C 3,0 C 87 % 996,3 hPa 0,0 l/m 0,0 km/h (0 Bft) N-NW 337 0 min 0,000 mm 0 W/m 1,0 C 2,9 C 3,2 km/h (1 Bft) 97 %
03.03.2014 23:20 2,8 C 2,8 C 2,9 C 88 % 996,4 hPa 0,0 l/m 0,0 km/h (0 Bft) N-NW 337 0 min 0,000 mm 0 W/m 1,0 C 2,8 C 1,6 km/h (1 Bft) 98 %
03.03.2014 23:30 2,7 C 2,7 C 2,8 C 88 % 996,4 hPa 0,0 l/m 0,0 km/h (0 Bft) N-NW 337 0 min 0,000 mm 0 W/m 0,9 C 2,7 C 1,6 km/h (1 Bft) 97 %
03.03.2014 23:40 2,6 C 2,6 C 2,7 C 88 % 996,4 hPa 0,0 l/m 0,0 km/h (0 Bft) N 0 0 min 0,000 mm 0 W/m 0,8 C 2,6 C 0,0 km/h (0 Bft) 98 %
03.03.2014 23:50 2,6 C 2,6 C 2,6 C 88 % 996,5 hPa 0,0 l/m 0,0 km/h (0 Bft) N 0 0 min 0,000 mm 0 W/m 0,8 C 2,6 C 0,0 km/h (0 Bft) 97 %
_ Min-Zeit 07:20 07:20 07:20 16:00 07:50 - 00:00 - - - - - 07:10 07:10 17:40 11:40
Minimum _ -0,3 C -0,3 C -0,2 C 67 % 992,6 hPa - 0,0 km/h (0 Bft) - - - - - -1,9 C -0,2 C 0,0 km/h (0 Bft) 89 %
_ Max-Zeit 16:00 16:10 16:00 06:30 00:00 00:00 12:10 - - 08:50 12:00 12:00 15:40 16:00 12:10 00:00
Maximum _ 9,6 C 9,5 C 9,6 C 88 % 998,3 hPa 0,0 l/m 11,3 km/h
S-SW (2 Bft)
- - 10 min 0,127 mm 650 W/m 3,9 C 9,6 C 20,9 km/h
SW (4 Bft)
100 %
Durchschnitt _ 4,4 C 4,3 C 4,5 C 82 % 994,6 hPa #0,0 l/m 1,7 km/h (1 Bft) S-SW - #3:50 h #0,686 mm 150 W/m 1,5 C 4,3 C 6,4 km/h (2 Bft) 99 %
PRIVATE WETTERSTATION BILLIGHEIM-ALLFELD - www.neckar-odenwald-wetter.de - Holger Sonntag